{"data":{"norad_id":69220,"intl_designator":"2026-115K","name":"STARLINK-37201","alt_names":[],"object_type":"PAYLOAD","status":"ACTIVE","operator":null,"country":"US","launch_date":"2026-05-26","launch_site_code":"AFWTR","launch_vehicle":null,"mission":null,"orbit_class":"UNKNOWN","rcs_meters":null,"size_class":null,"mass_kg":null,"dimensions":null,"purposes":["comms"],"wikipedia_slug":null,"has_3d_model":false,"image_url":null,"decayed_at":null,"tle_current":{"epoch":"2026-09-20T00:11:00.496896Z","epoch_age_seconds":69565,"freshness":"FRESH","line1":"1 69220U 26115K   26263.00764464  .00017321  00000+0  53751-3 0  9991","line2":"2 69220  97.2835 279.0899 0001592  98.8926 261.2497 15.33450538 19219","mean_motion":15.33450538,"eccentricity":0.0001592,"inclination_deg":97.2835,"raan_deg":279.0899,"arg_perigee_deg":98.8926,"mean_anomaly_deg":261.2497,"bstar":0.00053751,"rev_number":1921,"period_min":93.905865518044,"perigee_km":464.43718607542,"apogee_km":466.61620859665,"semimajor_km":6843.663697336,"source":"CELESTRAK","updated_at":"2026-09-20T09:00:44.103648Z"}}}